Terminal Aerodrome Forecast
Issued by NWS

Home | Current Version | Previous Version | Graphics & Text | Print | Product List | Glossary On
Versions: 1 2 3 4 5 6 7 8 9 10 11 12 13
000
FTUS42 KMHX 300500
TAFPGV
TAF
KPGV 300521Z 3006/3106 18004KT P6SM BKN100
     FM301400 33018G28KT P6SM SCT050
     FM302200 32010G18KT P6SM SKC
      AMD LTD TO CLD VIS AND WIND=

USA.gov is the U.S. government's official web portal to all federal, state and local government web resources and services.